Regional Weather Roundup
Issued by NWS

Home | Current Version | Previous Version | Text Only | Print | Product List | Glossary On
Versions: 1 2 3 4 5 6 7 8 9 10 11 12 13 14 15 16 17 18 19 20 21 22 23 24 25 26 27 28 29 30 31 32 33 34 35 36 37 38 39 40 41 42 43 44 45 46 47 48 49 50
000
ASUS45 KBOU 020107
RWRCO

WEATHER ROUNDUP FOR COLORADO
NATIONAL WEATHER SERVICE DENVER/BOULDER CO
700 PM MDT FRI AUG 01 2014

NOTE: "FAIR" INDICATES FEW OR NO CLOUDS BELOW 12000 FEET WITH NO
SIGNIFICANT WEATHER AND/OR OBSTRUCTIONS TO VISIBILITY.

COZ001>005-013-030-031-020200-
...NORTHWEST COLORADO...

CITY           SKY/WX    TMP DP  RH WIND       PRES   REMARKS
CRAIG          LGT RAIN  69  46  43 E12G26    30.20R
HAYDEN         MOSUNNY   73  46  38 CALM      30.24R
MEEKER         MOSUNNY   74  45  35 SE9       30.24R
MOUNT WERNER   NOT AVBL
STEAMBOAT SPGS MOSUNNY   74  48  39 W3        30.26S
WALDEN         MOSUNNY   68  41  37 E10       30.38R
$$

COZ006>008-011-020200-
...WEST CENTRAL VALLEYS...

CITY           SKY/WX    TMP DP  RH WIND       PRES   REMARKS
GRAND JUNCTION MOSUNNY   80  44  27 E7        30.13S
MONTROSE       MOSUNNY   76  47  35 N10       30.22F
EAGLE          PTSUNNY   70  48  46 W6        30.29F
RIFLE          PTSUNNY   77  44  30 SE12      30.19F
DELTA          MOSUNNY   77  48  36 N17G23    30.18F
NUCLA          PTSUNNY   72  50  46 NE9       30.23S
$$

COZ017>023-064>068-020200-
...SOUTHWEST COLORADO...

CITY           SKY/WX    TMP DP  RH WIND       PRES   REMARKS
DURANGO        PTSUNNY   65  55  70 W5        30.24F
CORTEZ         SUNNY     81  48  31 E8        30.16F
PAGOSA SPRINGS PTSUNNY   64  52  65 CALM      30.35R
TELLURIDE      PTSUNNY   63  46  55 E3        30.42S
WOLF CREEK PAS NOT AVBL
$$

COZ009-010-012-014-032>034-037-058>063-020200-
...CENTRAL COLORADO...

CITY           SKY/WX    TMP DP  RH WIND       PRES   REMARKS
ASPEN          PTSUNNY   63  47  55 N3        30.36S
BUENA VISTA    CLOUDY    58  46  65 CALM      30.45S
COPPER MTN     RAIN      45  37  76 SE15G22   30.67F
BERTHOUD PASS  FAIR      37  37 100 E17G25    30.71S
COTTONWOOD PAS CLOUDY    54  43  66 CALM      30.56S
GUNNISON       CLOUDY    64  46  52 N3        30.37R
KREMMLING      PTSUNNY   64  41  42 S7        30.36R
LEADVILLE      CLOUDY    50  44  80 S9        30.53R
MONARCH PASS   FOG       41  37  87 NE24      30.74R VSB<1/4
SALIDA         CLOUDY    59  52  78 CALM      30.51R
SUNLIGHT       CLOUDY    54  46  76 CALM      30.58F
WILKERSON PASS CLOUDY    43  43 100 NE5       30.66R FOG
$$

COZ069>075-020200-
...SAN LUIS VALLEY/SANGRE DE CRISTO MOUNTAINS...

CITY           SKY/WX    TMP DP  RH WIND       PRES   REMARKS
ALAMOSA        CLOUDY    59  51  75 N15G21    30.37R
LA VETA PASS   FOG       46  45  93 E13       30.54S VSB<1/4
SAGUACHE       CLOUDY    59  52  77 W6        30.40S
$$

COZ035-036-038>040-020200-
...NORTHERN COLORADO FRONT RANGE...

CITY           SKY/WX    TMP DP  RH WIND       PRES   REMARKS
DENVER INTL AP PTSUNNY   78  45  30 S12       30.24F
DMNS CITY PARK   N/A     74  47  39 S7G14     30.24S
AURORA         PTSUNNY   72  49  44 SW13      30.27S
FRONT RANGE AP PTSUNNY   77  46  33 SE7       30.26
ERIE MUNI ARPT PTSUNNY   77  42  27 SE3       30.23S
BOULDER MUN AP PTSUNNY   77  43  29 CALM      30.24R
CENTENNIAL     PTSUNNY   72  46  39 S12       30.28S
BROOMFIELD     PTSUNNY   77  41  27 S6        30.26F
FORT COLLINS   PTSUNNY   79  45  29 S8        30.21R
LONGMONT       PTSUNNY   81  42  25 CALM      30.24S
$$

COZ041-046-047-076>085-087-088-020200-
...PIKES PEAK/PALMER DIVIDE AND SOUTHERN FOOTHILLS...

CITY           SKY/WX    TMP DP  RH WIND       PRES   REMARKS
COLO. SPRINGS  CLOUDY    68  52  56 S7        30.34R
A. F. ACADEMY  CLOUDY    66  50  56 SW5       30.35R
ELLICOTT       CLOUDY    68  53  58 W8        30.32
FALCON         CLOUDY    65  50  57 S7        30.38S
FORT CARSON    CLOUDY    68  54  60 SW3       30.31S
LIMON          PTSUNNY   74  44  34 S10       30.27R
MONUMENT HILL  PTSUNNY   63  48  59 S7        30.37S
TRINIDAD       LGT RAIN  59  58  96 E8        30.32S FOG
$$

COZ042>045-048>051-090-091-020200-
...NORTHEAST COLORADO...

CITY           SKY/WX    TMP DP  RH WIND       PRES   REMARKS
GREELEY ARPT   MOSUNNY   81  54  39 S5        30.21S
AKRON          SUNNY     78  46  32 SE9       30.21R
BURLINGTON     PTSUNNY   79  50  36 SE10      30.19R
WRAY             N/A     83  48  28 SE6       30.15R
STERLING       SUNNY     86  54  32 W3        30.15S
HOLYOKE        MOSUNNY   79  55  44 SE5       30.15S
FORT MORGAN    SUNNY     82  46  28 E6        30.20S
$$

COZ086-089-092>099-020200-
...SOUTHEAST COLORADO...

CITY           SKY/WX    TMP DP  RH WIND       PRES   REMARKS
PUEBLO         CLOUDY    68  58  70 NW15      30.24R
LA JUNTA       CLOUDY    71  57  61 SW16      30.21R
LAMAR          CLOUDY    78  57  48 E6        30.14S
SPRINGFIELD      N/A     74  51  44 S7        30.20R
$$


USA.gov is the U.S. government's official web portal to all federal, state and local government web resources and services.